Location: IoMAS Observatory
(54.1780°N, 4.6265°W)
Time: 13:08:15
(UTC+01:00)

ISS - Visible Passes

Search period start: 29 November 2021 00:00
Search period end: 09 December 2021 00:00
Orbit: 417 x 423 km, 51.6° (Epoch: 29 November)

Date Brightness Start Highest point End Pass type
(mag) Time Alt. Az. Time Alt. Az. Time Alt. Az.
29 Nov -3.3 18:39:44 10° WSW 18:43:05 56° S 18:44:55 24° ESE visible
29 Nov -1.2 20:16:27 10° W 20:17:54 22° WSW 20:17:54 22° WSW visible
30 Nov -3.1 17:52:39 10° WSW 17:55:57 52° S 17:59:17 10° E visible
30 Nov -3.1 19:29:17 10° W 19:32:34 48° SSW 19:32:37 48° S visible
01 Dec -3.2 18:42:06 10° W 18:45:26 53° S 18:47:23 22° ESE visible
01 Dec -1.0 20:18:59 10° W 20:20:23 19° WSW 20:20:23 19° WSW visible
02 Dec -3.2 17:54:56 10° W 17:58:17 56° S 18:01:38 10° ESE visible
02 Dec -2.4 19:31:42 10° W 19:34:49 33° SSW 19:35:12 32° S visible
03 Dec -2.6 18:44:28 10° W 18:47:42 40° SSW 18:50:07 16° SE visible
03 Dec -0.7 20:21:55 10° WSW 20:23:06 14° SW 20:23:06 14° SW visible
04 Dec -2.8 17:57:15 10° W 18:00:32 47° SSW 18:03:49 10° ESE visible
04 Dec -1.4 19:34:19 10° W 19:36:53 20° SSW 19:38:08 16° S visible
05 Dec -1.7 18:46:54 10° W 18:49:48 26° SSW 18:52:40 10° SSE visible
06 Dec -2.0 17:59:34 10° W 18:02:40 33° SSW 18:05:45 10° SE visible
06 Dec -0.5 19:38:09 10° SW 19:38:44 10° SW 19:39:20 10° SSW visible
07 Dec -0.7 18:49:45 10° WSW 18:51:43 15° SW 18:53:40 10° S visible
08 Dec -0.9 18:02:06 10° W 18:04:38 20° SSW 18:07:10 10° SSE visible
